#timestamp,LO_Frequency,Hit,StdDev 
1544738415.1,286047000.5,N
1544738416.0,286047000.5,N
1544738435.8,286047000.5,N
1544738455.7,286047002.6,N
1544738475.5,286047000.1,N
1544738495.4,286047000.5,N
1544738515.2,286047002.8,N
1544738535.0,286047000.6,N
1544738535.9,286047000.6,N
1544738555.8,286047000.1,N
1544738575.6,286047002.7,N
1544738595.4,286047000.3,N
1544738615.3,286047002.1,N
1544738635.1,286047001.9,N
1544738655.9,286046999.8,N
1544738675.7,286047000.0,N
1544738695.5,286047001.2,N
1544738715.4,286046999.9,N
1544738735.2,286046999.8,N
1544738755.0,286047000.3,N
1544738755.9,286047000.3,N
1544738775.8,286047002.6,N
1544738795.6,286047002.8,N
1544738815.5,286047000.1,N
1544738835.3,286047001.5,N
1544738855.1,286047001.7,N
1544738875.9,286047004.3,Y
1544738895.7,286047002.7,P
1544738915.6,286047001.6,N
1544738935.4,286047002.5,P
1544738955.2,286047004.3,Y
1544738975.1,286046998.5,P
1544738976.0,286046998.5,N
1544738995.8,286047002.3,N
1544739015.6,286047000.1,N
1544739035.5,286046999.8,N
1544739055.3,286046998.5,N
1544739075.2,286046998.2,N
1544739095.9,286047000.3,N
1544739115.7,286047002.4,N
1544739135.6,286047000.0,N
1544739155.4,286047000.4,N
1544739175.3,286047002.4,N
1544739195.1,286047000.5,N
1544739196.0,286047000.5,N
1544739215.8,286047000.2,N
1544739235.7,286047000.7,N
1544739255.5,286047000.4,N
1544739275.3,286047000.5,N
1544739295.2,286047000.9,N
1544739315.0,286047000.0,N
1544739315.9,286047000.0,N
1544739335.8,286047002.7,N
1544739355.6,286047002.6,N
1544739375.4,286047002.5,N
1544739395.3,286047001.9,N
1544739415.1,286047004.2,Y
1544739435.8,286047001.5,P
1544739455.7,286047004.3,P
1544739475.5,286047001.7,N
1544739495.4,286047002.5,N
1544739515.2,286047004.4,Y
1544739535.0,286046999.9,P
1544739535.9,286046999.9,N
1544739555.8,286047002.3,N
1544739575.6,286047002.5,N
1544739595.5,286047001.4,N
1544739645.3,286047002.2,E
1544739655.2,286047000.1,N
1544739675.1,286046998.7,P
1544739676.0,286046998.7,N
1544739695.8,286047000.8,N
1544739715.7,286046998.2,N
1544739735.5,286046999.2,N
1544739755.3,286047001.1,N
1544739775.2,286046998.1,N
1544739795.0,286046998.6,N
1544739795.9,286046998.6,N
1544739815.8,286046998.5,N
1544739835.6,286047001.0,N
1544739855.4,286047000.9,N
1544739875.3,286046999.9,N
1544739895.1,286047000.3,N
1544739915.8,286046998.1,N
1544739935.7,286047001.1,N
1544739955.5,286047000.3,N
1544739975.4,286047000.0,N
1544739995.2,286047000.6,N
1544740015.0,286047000.7,N
1544740015.9,286047000.7,N
1544740035.8,286046998.4,N
1544740055.6,286046998.5,N
1544740075.4,286047000.6,N
1544740095.3,286047000.7,N
1544740115.1,286047002.4,N
1544740135.9,286047002.4,N
1544740155.7,286047000.1,N
1544740175.5,286047000.8,N
1544740195.4,286046999.7,N
1544740215.2,286047002.1,N
1544740235.0,286047002.4,N
1544740236.0,286047002.4,N
1544740255.8,286047002.8,N
1544740275.6,286047002.7,N
1544740295.5,286047000.2,N
1544740315.3,286046999.9,N
1544740335.1,286047000.4,N
1544740355.9,286047000.0,N
1544740375.7,286047000.4,N
1544740395.6,286047001.1,N
1544740415.4,286046998.8,N
1544740435.2,286047001.1,N
1544740455.1,286047000.6,N
1544740456.0,286047000.6,N
1544740475.8,286047000.6,N
1544740495.6,286047001.9,N
1544740515.5,286047001.3,N
1544740535.3,286047001.3,N
1544740555.2,286047003.8,Y
1544740575.9,286047002.5,P
1544740595.7,286047001.3,N
1544740615.6,286047002.7,P
1544740635.4,286047002.4,Y
1544740655.3,286047000.3,P
1544740675.1,286047000.4,N
1544740676.0,286047000.4,N
1544740695.8,286047000.3,N
1544740715.7,286047002.8,Y
1544740735.5,286047001.1,P
1544740755.4,286047001.2,P
1544740775.2,286047000.7,N
1544740795.0,286046998.4,Y
1544740795.9,286046998.4,P
1544740815.8,286046999.6,N
1544740835.6,286046998.4,N
1544740855.4,286046996.9,Y
1544740875.3,286046998.1,P
1544740895.1,286047001.0,N
1544740915.9,286046998.1,N
1544740935.7,286046998.6,N
1544740955.5,286047001.2,N
1544740975.4,286047000.5,N
1544740995.2,286047001.0,N
1544741015.1,286047001.2,N
1544741016.0,286047001.2,N
1544741035.8,286046998.5,N
1544741055.6,286046998.4,N
1544741075.5,286047000.5,N
1544741095.3,286046998.3,N
1544741115.1,286046998.5,N
1544741135.9,286046999.2,N
1544741155.7,286046999.6,N
1544741175.6,286046998.7,N
1544741195.4,286047000.5,N
1544741215.2,286046998.8,N
1544741235.1,286046998.3,N
1544741236.0,286046998.3,N
1544741255.8,286047000.7,N
1544741275.6,286047000.9,N
1544741295.5,286047000.8,N
1544741315.3,286047000.0,N
1544741335.2,286046999.3,N
1544741355.9,286046998.7,N
1544741375.7,286046998.8,N
1544741395.6,286046997.2,N
1544741415.4,286046997.7,N
1544741435.2,286046996.7,N
1544741455.1,286046997.7,N
1544741456.0,286046997.7,N
1544741475.8,286046996.9,N
1544741495.7,286046998.0,N
1544741515.5,286046997.5,N
1544741535.3,286046997.6,N
1544741555.2,286046995.2,Y
1544741575.0,286046997.6,P
1544741575.9,286046997.6,P
1544741595.8,286046995.2,P
1544741615.6,286046996.3,N
1544741635.4,286046996.2,Y
1544741655.3,286046997.3,P
1544741675.1,286046995.4,P
1544741695.9,286046995.8,P
1544741715.7,286046995.0,Y
1544741735.5,286047000.2,P
1544741755.4,286047000.0,N
1544741775.2,286046998.3,N
1544741795.0,286046999.0,N
1544741795.9,286046999.0,N
1544741815.8,286046998.9,N
1544741835.6,286046998.7,N
1544741855.5,286046999.3,N
1544741875.3,286046998.2,N
1544741895.1,286047000.9,N
1544741915.9,286046998.4,N
1544741935.7,286046997.0,N
1544741955.5,286046999.0,N
1544741975.4,286046997.1,N
1544741995.2,286046998.7,N
